TimeCDT,TemperatureF,Dew PointF,Humidity,Sea Level PressureIn,VisibilityMPH,Wind Direction,Wind SpeedMPH,Gust SpeedMPH,PrecipitationIn,Events,Conditions,WindDirDegrees,DateUTC
12:15 AM,46.8,36.0,66,30.04,7.0,NNW,5.8,-,N/A,,Scattered Clouds,330,2012-09-17 05:15:00
12:35 AM,45.0,35.6,70,30.04,10.0,NW,6.9,-,N/A,,Scattered Clouds,320,2012-09-17 05:35:00
12:55 AM,43.9,35.2,72,30.03,10.0,NW,5.8,-,N/A,,Clear,320,2012-09-17 05:55:00
1:15 AM,41.9,34.7,76,30.03,10.0,WNW,6.9,-,N/A,,Clear,300,2012-09-17 06:15:00
1:35 AM,40.1,34.2,79,30.03,10.0,WNW,4.6,-,N/A,,Clear,300,2012-09-17 06:35:00
1:55 AM,38.8,34.2,83,30.03,10.0,NW,5.8,-,N/A,,Clear,310,2012-09-17 06:55:00
2:15 AM,38.5,34.5,86,30.02,10.0,NW,6.9,-,N/A,,Clear,310,2012-09-17 07:15:00
2:35 AM,39.4,35.2,85,30.03,10.0,NW,6.9,-,N/A,,Clear,310,2012-09-17 07:35:00
2:55 AM,39.2,35.2,86,30.02,10.0,NW,8.1,-,N/A,,Clear,310,2012-09-17 07:55:00
3:15 AM,38.5,34.9,87,30.03,7.0,WNW,6.9,-,N/A,,Clear,300,2012-09-17 08:15:00
3:35 AM,39.2,35.1,85,30.03,10.0,WNW,5.8,-,N/A,,Clear,300,2012-09-17 08:35:00
3:55 AM,38.3,34.5,86,30.03,10.0,WNW,5.8,-,N/A,,Clear,290,2012-09-17 08:55:00
4:15 AM,39.2,35.4,86,30.03,7.0,WNW,5.8,-,N/A,,Clear,290,2012-09-17 09:15:00
4:55 AM,36.3,33.6,90,30.03,10.0,WNW,5.8,-,N/A,,Clear,290,2012-09-17 09:55:00
5:15 AM,37.2,34.5,90,30.04,7.0,WNW,6.9,-,N/A,,Clear,290,2012-09-17 10:15:00
5:35 AM,35.2,33.1,92,30.04,10.0,WNW,5.8,-,N/A,,Clear,300,2012-09-17 10:35:00
5:55 AM,34.0,32.4,94,30.04,10.0,WNW,5.8,-,N/A,,Clear,300,2012-09-17 10:55:00
6:15 AM,34.3,32.5,93,30.04,10.0,WNW,5.8,-,N/A,,Clear,290,2012-09-17 11:15:00
6:35 AM,34.2,32.4,93,30.05,7.0,WNW,5.8,-,N/A,,Clear,300,2012-09-17 11:35:00
7:15 AM,32.2,31.3,96,30.05,7.0,WNW,4.6,-,N/A,,Clear,290,2012-09-17 12:15:00
7:35 AM,32.7,31.8,96,30.05,7.0,WNW,4.6,-,N/A,,Clear,290,2012-09-17 12:35:00
7:55 AM,35.4,34.0,94,30.05,7.0,WNW,5.8,-,N/A,,Clear,300,2012-09-17 12:55:00
8:15 AM,37.4,35.6,93,30.05,7.0,WNW,5.8,-,N/A,,Scattered Clouds,300,2012-09-17 13:15:00
8:35 AM,38.5,36.1,91,30.05,7.0,WNW,6.9,-,N/A,,Mostly Cloudy,300,2012-09-17 13:35:00
8:55 AM,40.1,37.2,89,30.05,7.0,WNW,6.9,-,N/A,,Overcast,300,2012-09-17 13:55:00
9:15 AM,42.4,37.9,84,30.06,7.0,NW,6.9,-,N/A,,Scattered Clouds,320,2012-09-17 14:15:00
9:35 AM,45.1,37.4,74,30.06,10.0,NW,6.9,-,N/A,,Clear,310,2012-09-17 14:35:00
9:55 AM,47.5,36.3,65,30.06,7.0,NNW,11.5,-,N/A,,Clear,330,2012-09-17 14:55:00
10:35 AM,49.8,33.6,54,30.05,7.0,NW,10.4,-,N/A,,Clear,320,2012-09-17 15:35:00
10:55 AM,50.9,32.9,50,30.05,10.0,NW,9.2,-,N/A,,Clear,310,2012-09-17 15:55:00
11:15 AM,51.6,33.4,50,30.05,10.0,North,10.4,-,N/A,,Scattered Clouds,350,2012-09-17 16:15:00
11:35 AM,51.4,33.1,50,30.05,7.0,NNW,10.4,16.1,N/A,,Mostly Cloudy,330,2012-09-17 16:35:00
11:55 AM,51.4,32.4,48,30.05,7.0,NW,10.4,-,N/A,,Mostly Cloudy,320,2012-09-17 16:55:00
12:15 PM,52.7,31.8,45,30.04,7.0,NNW,10.4,17.3,N/A,,Mostly Cloudy,340,2012-09-17 17:15:00
12:35 PM,53.6,30.2,41,30.04,10.0,NW,11.5,-,N/A,,Mostly Cloudy,320,2012-09-17 17:35:00
12:55 PM,52.9,30.2,42,30.03,10.0,NNW,5.8,-,N/A,,Mostly Cloudy,340,2012-09-17 17:55:00
1:15 PM,53.2,30.0,41,30.03,10.0,North,8.1,-,N/A,,Mostly Cloudy,360,2012-09-17 18:15:00
1:35 PM,54.5,30.0,39,30.02,10.0,North,8.1,17.3,N/A,,Scattered Clouds,10,2012-09-17 18:35:00
1:55 PM,54.1,30.0,40,30.02,7.0,North,8.1,-,N/A,,Scattered Clouds,350,2012-09-17 18:55:00
2:15 PM,56.1,29.5,36,30.01,7.0,NNW,10.4,-,N/A,,Mostly Cloudy,340,2012-09-17 19:15:00
2:35 PM,56.3,28.0,34,30.00,7.0,NW,13.8,17.3,N/A,,Mostly Cloudy,310,2012-09-17 19:35:00
2:55 PM,55.0,28.8,37,30.01,7.0,NNW,13.8,17.3,N/A,,Overcast,340,2012-09-17 19:55:00
3:15 PM,53.6,28.8,39,30.00,7.0,NW,8.1,-,N/A,,Mostly Cloudy,310,2012-09-17 20:15:00
3:35 PM,54.1,28.9,38,30.00,10.0,North,11.5,16.1,N/A,,Mostly Cloudy,350,2012-09-17 20:35:00
3:55 PM,53.1,28.8,39,29.99,7.0,NW,9.2,-,N/A,,Scattered Clouds,310,2012-09-17 20:55:00
4:15 PM,53.8,28.0,37,30.00,10.0,North,9.2,-,N/A,,Overcast,350,2012-09-17 21:15:00
4:35 PM,53.4,28.6,38,30.00,10.0,West,15.0,-,N/A,,Overcast,280,2012-09-17 21:35:00
4:55 PM,53.4,28.4,38,30.00,10.0,WSW,9.2,-,N/A,,Scattered Clouds,250,2012-09-17 21:55:00
5:15 PM,54.7,28.0,36,30.00,7.0,North,15.0,19.6,N/A,,Mostly Cloudy,350,2012-09-17 22:15:00
5:35 PM,53.2,27.5,37,30.00,10.0,NNW,9.2,-,N/A,,Mostly Cloudy,330,2012-09-17 22:35:00
6:15 PM,52.9,28.9,40,30.00,10.0,NNW,12.7,18.4,N/A,,Clear,330,2012-09-17 23:15:00
6:35 PM,51.6,30.4,44,30.01,10.0,North,12.7,18.4,N/A,,Mostly Cloudy,10,2012-09-17 23:35:00
6:55 PM,49.1,32.4,53,30.02,7.0,North,8.1,-,N/A,,Scattered Clouds,10,2012-09-17 23:55:00
7:15 PM,47.7,33.3,57,30.02,10.0,North,6.9,-,N/A,,Clear,10,2012-09-18 00:15:00
7:35 PM,46.6,33.4,60,30.02,10.0,North,4.6,-,N/A,,Clear,360,2012-09-18 00:35:00
7:55 PM,45.5,33.8,64,30.02,7.0,Calm,Calm,-,N/A,,Scattered Clouds,0,2012-09-18 00:55:00
8:15 PM,44.2,33.6,66,30.02,10.0,Calm,Calm,-,N/A,,Clear,0,2012-09-18 01:15:00
8:35 PM,42.6,32.7,68,30.03,10.0,Calm,Calm,-,N/A,,Clear,0,2012-09-18 01:35:00
8:55 PM,40.3,32.4,73,30.03,10.0,West,4.6,-,N/A,,Clear,260,2012-09-18 01:55:00
9:15 PM,38.7,31.8,76,30.03,10.0,WNW,4.6,-,N/A,,Scattered Clouds,300,2012-09-18 02:15:00
9:35 PM,38.1,32.0,79,30.03,7.0,WNW,4.6,-,N/A,,Scattered Clouds,300,2012-09-18 02:35:00
9:55 PM,37.9,31.8,79,30.03,7.0,West,4.6,-,N/A,,Clear,280,2012-09-18 02:55:00
10:15 PM,36.5,31.6,83,30.02,10.0,West,4.6,-,N/A,,Clear,280,2012-09-18 03:15:00
10:35 PM,35.1,31.5,87,30.02,7.0,WNW,5.8,-,N/A,,Clear,290,2012-09-18 03:35:00
10:55 PM,33.1,30.4,90,30.03,7.0,WNW,5.8,-,N/A,,Clear,300,2012-09-18 03:55:00
11:15 PM,33.6,30.2,87,30.03,10.0,WNW,5.8,-,N/A,,Clear,290,2012-09-18 04:15:00
11:35 PM,32.2,28.8,87,30.03,10.0,WNW,6.9,-,N/A,,Clear,290,2012-09-18 04:35:00
11:55 PM,32.2,28.8,87,30.03,10.0,WNW,5.8,-,N/A,,Clear,290,2012-09-18 04:55:00